Vero Beach, FL

10:15 AM EDT on June 25, 2018 (GMT -0400)
Vero Beach Municipal

Weather History for KVRB - November, 2017

Change the Weather History Date:

Wednesday, November 15, 2017

  Actual Average Record
Temperature  
Mean Temperature 74 °F 70 °F  
Max Temperature 80 °F 79 °F 87 °F (1970)
Min Temperature 68 °F 62 °F 38 °F (1969)
Degree Days  
Heating Degree Days 0 1  
Month to date heating degree days 0 7  
Since 1 July heating degree days 18 10  
Cooling Degree Days 9 6  
Month to date cooling degree days 142 106  
Year to date cooling degree days 3731 3234  
Growing Degree Days 24 (Base 50)    
Moisture  
Dew Point 66 °F    
Average Humidity 81    
Maximum Humidity 100    
Minimum Humidity 62    
Precipitation  
Precipitation 0.10 in 0.11 in 4.82 in (1994)
Month to date precipitation 2.03 1.80  
Year to date precipitation 53.49 48.20  
Sea Level Pressure  
Sea Level Pressure 29.95 in    
Wind  
Wind Speed 11 mph (North)    
Max Wind Speed 20 mph    
Max Gust Speed 27 mph    
Visibility 9 miles    
Events Rain    
T = Trace of Precipitation, MM = Missing Value Source: NWS Daily Summary

Daily Weather History Graph

Daily Weather History Graph

Search for Another Location

Airport or City:

Astronomy

Nov. 15, 2017 Rise Set
Actual Time 6:42 AM EST 5:29 PM EST
Civil Twilight 6:18 AM EST 5:54 PM EST
Nautical Twilight 5:49 AM EST 6:22 PM EST
Astronomical Twilight 5:22 AM EST 6:50 PM EST
Moon 4:02 AM EST (11/15) 4:06 PM EST (11/15)
Length of Visible Light 11h 36m
Length of Day
10h 46m
Waning Crescent, 7% of the Moon is Illuminated
Nov 15
Waning Crescent
Nov 18
New
Nov 26
First Quarter
Dec 3
Full
Dec 10
Last Quarter

Hourly Weather History & Observations

Time (EST) Temp. Dew Point Humidity Pressure Visibility Wind Dir Wind Speed Gust Speed Precip Events Conditions
12:53 AM 73.0 °F 62.1 °F 68% 29.94 in 10.0 mi North 15.0 mph 20.7 mph N/A   Overcast
1:53 AM 73.0 °F 63.0 °F 71% 29.92 in 10.0 mi North 11.5 mph 24.2 mph N/A   Overcast
2:53 AM 73.0 °F 63.0 °F 71% 29.92 in 10.0 mi North 11.5 mph 21.9 mph N/A   Overcast
3:53 AM 73.0 °F 63.0 °F 71% 29.91 in 10.0 mi North 11.5 mph 20.7 mph N/A   Overcast
4:53 AM 73.9 °F 64.0 °F 71% 29.92 in 10.0 mi North 10.4 mph 19.6 mph N/A   Overcast
5:53 AM 73.9 °F 64.0 °F 71% 29.93 in 10.0 mi NNE 10.4 mph 19.6 mph N/A   Overcast
6:51 AM 73.4 °F 66.2 °F 78% 29.95 in 10.0 mi NNE 11.5 mph 17.3 mph 0.00 in   Overcast
6:53 AM 73.0 °F 64.9 °F 76% 29.94 in 10.0 mi NNE 12.7 mph 17.3 mph 0.00 in   Overcast
7:03 AM 73.9 °F 64.9 °F 73% 29.95 in 10.0 mi NNE 10.4 mph 19.6 mph N/A   Overcast
7:53 AM 73.9 °F 64.9 °F 73% 29.96 in 10.0 mi North 10.4 mph - N/A   Overcast
8:53 AM 75.0 °F 64.9 °F 71% 29.97 in 10.0 mi North 12.7 mph 20.7 mph N/A   Mostly Cloudy
9:53 AM 77.0 °F 64.9 °F 66% 29.97 in 10.0 mi NNE 11.5 mph 21.9 mph N/A   Mostly Cloudy
10:53 AM 79.0 °F 64.9 °F 62% 29.97 in 10.0 mi North 16.1 mph 21.9 mph N/A   Overcast
11:30 AM 77.0 °F 66.0 °F 69% 29.97 in 9.0 mi North 15.0 mph 21.9 mph N/A   Mostly Cloudy
11:53 AM 75.9 °F 66.0 °F 71% 29.96 in 10.0 mi North 15.0 mph 24.2 mph 0.00 in   Mostly Cloudy
12:53 PM 75.0 °F 70.0 °F 84% 29.94 in 10.0 mi North 12.7 mph - 0.03 in   Overcast
1:53 PM 75.0 °F 68.0 °F 79% 29.92 in 10.0 mi NNE 15.0 mph 18.4 mph N/A   Overcast
2:21 PM 69.1 °F 66.0 °F 90% 29.92 in 1.8 mi North 10.4 mph - 0.01 in Rain Rain
2:28 PM 69.1 °F 66.9 °F 93% 29.93 in 3.0 mi North 8.1 mph - 0.03 in Rain Rain
2:53 PM 70.0 °F 68.0 °F 93% 29.92 in 7.0 mi NNW 9.2 mph - 0.04 in   Overcast
3:13 PM 70.0 °F 68.0 °F 93% 29.93 in 10.0 mi North 6.9 mph - N/A   Overcast
3:29 PM 71.1 °F 69.1 °F 93% 29.93 in 10.0 mi ENE 6.9 mph - N/A   Overcast
3:53 PM 70.0 °F 68.0 °F 93% 29.93 in 10.0 mi ENE 3.5 mph - N/A   Overcast
4:24 PM 70.0 °F 68.0 °F 93% 29.94 in 10.0 mi NW 4.6 mph - N/A   Overcast
4:53 PM 70.0 °F 68.0 °F 93% 29.94 in 5.0 mi NW 4.6 mph - 0.00 in Rain Light Rain
5:53 PM 69.1 °F 68.0 °F 96% 29.95 in 10.0 mi WNW 5.8 mph - 0.00 in   Overcast
6:48 PM 69.8 °F 69.8 °F 100% 29.96 in 10.0 mi WNW 5.8 mph - N/A   Overcast
6:53 PM 70.0 °F 69.1 °F 97% 29.96 in 10.0 mi NW 6.9 mph - N/A   Mostly Cloudy
7:18 PM 70.0 °F 68.0 °F 93% 29.97 in 8.0 mi NNW 13.8 mph - 0.00 in Rain Light Rain
7:53 PM 69.1 °F 66.9 °F 93% 29.98 in 10.0 mi NW 6.9 mph - 0.01 in   Overcast
8:03 PM 69.1 °F 66.9 °F 93% 29.98 in 10.0 mi NW 10.4 mph - N/A   Overcast
8:53 PM 69.1 °F 66.9 °F 93% 29.98 in 10.0 mi NNW 9.2 mph - N/A   Overcast
9:53 PM 69.1 °F 66.9 °F 93% 29.99 in 10.0 mi NNW 9.2 mph - N/A   Mostly Cloudy
10:16 PM 68.0 °F 66.9 °F 96% 29.99 in 10.0 mi NNW 9.2 mph - N/A   Mostly Cloudy
10:23 PM 68.0 °F 66.9 °F 96% 29.99 in 10.0 mi NNW 8.1 mph - N/A   Overcast
10:30 PM 68.0 °F 66.9 °F 96% 29.99 in 9.0 mi North 6.9 mph - N/A   Mostly Cloudy
10:53 PM 68.0 °F 66.9 °F 96% 29.99 in 6.0 mi NNW 12.7 mph - 0.02 in Rain Light Rain
11:08 PM 68.0 °F 66.9 °F 96% 29.99 in 6.0 mi NW 5.8 mph - 0.00 in   Overcast
11:28 PM 68.0 °F 66.9 °F 96% 29.99 in 8.0 mi NNW 6.9 mph - 0.00 in   Overcast
11:53 PM 68.0 °F 66.9 °F 96% 29.99 in 10.0 mi NNW 9.2 mph - 0.00 in   Overcast